RH
88 93 88 91 87 80 90 78 67 59 71 72 70 57 50 52 47 39 34 40 48 51 51 52 53 55 60 70 73 75 76 73 70 72 73 80 84 78 75 65 63 68 67 64
95 85 73 80 89 95 95 83 71 62 75 69 72 67 56 49 45 39 33 37 39 45 48 59 48 57 58 70 74 78 83 82 77 72 73 76 81 87 86 79 71 66 67 67
92 82 75 78 95 98 96 81 71 64 75 72 77 74 58 45 46 43 36 38 39 36 41 53 50 57 68 68 74 80 86 85 84 75 74 80 81 82 85 83 84 83 77 74
87 89 78 87 98 92 94 75 78 71 76 71 67 71 52 43 43 38 36 35 35 34 36 51 54 45 61 69 75 79 82 86 84 84 74 70 76 79 80 79 80 84 81 82
97 85 78 79 87 89 94 84 74 77 73 73 70 66 47 34 34 32 34 34 34 36 37 44 50 46 56 68 75 77 76 82 79 77 83 79 74 74 82 82 84 83 77 82
96 92 85 84 87 91 93 87 91 82 78 91 69 52 36 38 33 33 34 32 34 33 36 47 47 46 55 63 68 74 73 75 82 80 79 82 84 84 82 83 87 84 81 79
88 91 82 92 93 96 98 95 97 96 95 67 60 65 44 37 32 31 30 32 33 33 37 43 49 45 53 63 69 74 75 75 75 77 79 76 79 81 85 81 87 86 84 77
80 94 94 95 95 97 98 98 90 81 79 66 64 60 49 40 31 27 27 30 33 35 36 39 47 51 55 61 68 70 72 70 69 73 75 72 75 77 77 76 79 78 72 66
79 92 94 91 92 92 98 96 84 78 63 65 58 46 41 39 30 28 26 25 28 34 40 44 45 49 50 58 62 67 71 73 73 72 73 76 79 79 79 76 76 76 67 62
89 91 86 91 90 92 98 97 87 83 76 70 61 44 46 37 34 29 28 28 27 29 33 40 47 51 52 58 63 69 79 79 73 69 71 70 69 69 71 69 65 64 62 61
82 90 93 88 86 94 98 95 90 79 77 63 67 53 42 39 33 30 25 23 27 29 31 35 39 44 52 56 57 64 71 80 85 80 75 72 70 67 66 64 62 61 59 58
91 90 91 93 88 85 89 87 81 79 72 72 74 60 46 43 39 33 31 30 32 32 33 31 33 39 43 49 54 57 57 67 70 75 72 68 68 67 67 67 64 61 57 56
92 91 96 95 94 94 91 83 90 78 78 76 74 59 50 50 47 39 36 37 36 35 35 35 36 38 40 41 44 48 51 54 59 59 63 67 70 66 64 60 62 61 60 58
92 97 98 87 83 81 86 78 77 85 81 68 69 62 56 52 50 45 44 42 42 41 38 38 39 40 41 43 45 45 46 47 49 50 52 55 61 68 69 65 60 56 56 57
94 98 85 79 75 73 75 78 76 80 72 78 68 65 59 55 53 49 44 41 41 46 44 42 43 44 44 46 48 47 48 51 53 54 55 54 54 53 56 58 60 59 56 52
90 93 83 81 73 72 73 70 72 73 72 72 71 66 60 56 51 48 46 43 42 44 48 48 48 49 49 51 52 53 54 55 57 58 58 59 58 56 54 54 54 55 57 59
86 82 82 85 74 72 74 71 68 68 67 67 71 64 60 57 52 50 47 46 44 45 45 45 47 50 52 54 55 55 56 60 61 62 63 62 62 62 60 58 58 58 61 62
77 75 71 71 69 72 64 60 63 66 59 57 59 59 58 56 55 53 50 46 44 44 47 49 51 54 56 57 57 58 58 62 66 68 68 67 67 68 66 65 63 59 59 61
70 72 75 75 65 64 64 62 59 59 58 55 55 54 54 55 52 51 51 51 52 48 51 53 56 58 60 58 58 59 62 64 70 74 73 73 72 72 69 66 65 64 64 66
68 70 75 75 72 60 66 60 60 58 64 60 60 56 53 52 54 50 47 46 52 53 57 60 61 64 65 63 62 63 65 66 70 77 78 78 77 74 72 70 69 67 66 68
66 69 72 74 75 65 58 57 57 65 79 66 60 57 53 54 54 55 52 49 50 56 61 67 69 69 69 71 70 69 70 68 69 74 78 81 80 79 77 78 78 76 73 70
65 63 63 66 70 72 65 65 67 68 62 62 59 56 60 59 58 58 55 53 52 57 61 65 66 67 68 69 72 72 73 71 74 76 79 78 78 76 77 81 80 78 78 77
73 69 70 61 61 56 60 64 63 62 63 68 64 60 63 64 65 67 64 62 61 60 63 65 66 68 71 73 74 74 76 74 83 84 82 83 82 80 84 86 84 85 82 81
71 73 73 73 69 65 64 64 64 64 69 71 71 70 72 74 74 75 74 72 69 69 70 70 72 75 78 77 75 73 76 79 81 84 86 84 84 84 85 87 87 86 86 86
80 79 78 76 77 75 74 73 73 74 75 80 78 75 75 78 79 83 83 82 79 76 74 74 75 75 73 75 80 84 85 87 87 87 86 86 88 89 93 92 92 92 91 90
76 79 81 92 81 80 78 76 75 77 81 82 81 80 76 76 74 75 79 81 82 85 86 84 84 82 83 86 90 91 86 87 86 89 91 91 92 93 94 96 94 94 94 92